Weather History for Bremerton, WA

Change the Weather History Date:

Monday, October 7, 2013

  Actual Average Record
Temperature  
Mean Temperature 52 °F -  
Max Temperature 60 °F 59 °F 75 °F (2000)
Min Temperature 42 °F 43 °F 37 °F (2006)
Degree Days  
Heating Degree Days 13    
Growing Degree Days 2 (Base 50)    
Moisture  
Dew Point 46 °F    
Average Humidity 79    
Maximum Humidity 94    
Minimum Humidity 55    
Precipitation  
Precipitation 0.01 in - - ()
Sea Level Pressure  
Sea Level Pressure 29.98 in    
Wind  
Wind Speed 13 mph (SSW)    
Max Wind Speed 23 mph    
Max Gust Speed 30 mph    
Visibility 10 miles    
Events      
Averages and records for this station are not official NWS values.
T = Trace of Precipitation, MM = Missing Value Source: NWS Daily Summary

Daily Weather History Graph

Daily Weather History Graph

Search for Another Location

Airport:

Trip Planner

Search our weather history database for the weather conditions in past years. The results will help you decide how hot, cold, wet, or windy it might be!

Date:

Astronomy

Oct. 07, 2013 Rise Set
Actual Time 7:18 AM PDT 6:37 PM PDT
Civil Twilight 6:48 AM PDT 7:08 PM PDT
Nautical Twilight 6:12 AM PDT 7:43 PM PDT
Astronomical Twilight 5:36 AM PDT 8:19 PM PDT
Moon 10:28 AM PDT (10/7) 8:12 PM PDT (10/7)
Length of Visible Light 12h 20m
Length of Day
11h 18m
Waxing Crescent, 9% of the Moon is Illuminated
Oct 7
Waxing Crescent
Oct 11
First Quarter
Oct 18
Full
Oct 26
Last Quarter
Nov 3
New

Hourly Weather History & Observations

Time (PDT) Temp. Windchill Dew Point Humidity Pressure Visibility Wind Dir Wind Speed Gust Speed Precip Events Conditions
12:15 AM 51.8 °F - 48.2 °F 88% 29.92 in 9.0 mi South 10.4 mph 16.1 mph N/A   Overcast
12:35 AM 51.8 °F - 48.2 °F 88% 29.93 in 10.0 mi South 12.7 mph 19.6 mph N/A   Overcast
12:55 AM 51.8 °F - 48.2 °F 88% 29.93 in 10.0 mi South 16.1 mph 23.0 mph N/A   Overcast
1:15 AM 51.8 °F - 48.2 °F 88% 29.93 in 10.0 mi South 13.8 mph 20.7 mph 0.01 in   Overcast
1:35 AM 51.8 °F - 50.0 °F 94% 29.93 in 10.0 mi South 15.0 mph 20.7 mph 0.01 in   Overcast
1:55 AM 51.8 °F - 48.2 °F 88% 29.93 in 10.0 mi South 12.7 mph 18.4 mph 0.01 in   Overcast
2:15 AM 53.6 °F - 50.0 °F 88% 29.94 in 10.0 mi South 11.5 mph - N/A   Overcast
2:35 AM 53.6 °F - 50.0 °F 88% 29.94 in 10.0 mi South 15.0 mph 19.6 mph N/A   Overcast
2:55 AM 51.8 °F - 48.2 °F 88% 29.93 in 10.0 mi South 12.7 mph - N/A   Mostly Cloudy
3:15 AM 51.8 °F - 48.2 °F 88% 29.93 in 10.0 mi South 10.4 mph - N/A   Mostly Cloudy
3:35 AM 51.8 °F - 48.2 °F 88% 29.93 in 10.0 mi South 11.5 mph 18.4 mph N/A   Overcast
3:55 AM 51.8 °F - 48.2 °F 88% 29.93 in 10.0 mi South 11.5 mph - N/A   Overcast
4:15 AM 51.8 °F - 48.2 °F 88% 29.93 in 10.0 mi South 12.7 mph 18.4 mph N/A   Scattered Clouds
4:35 AM 51.8 °F - 48.2 °F 88% 29.93 in 10.0 mi South 12.7 mph 19.6 mph N/A   Mostly Cloudy
4:55 AM 51.8 °F - 48.2 °F 88% 29.93 in 10.0 mi South 10.4 mph 17.3 mph N/A   Overcast
5:15 AM 51.8 °F - 48.2 °F 88% 29.93 in 10.0 mi South 11.5 mph 18.4 mph N/A   Mostly Cloudy
5:35 AM 51.8 °F - 48.2 °F 88% 29.93 in 10.0 mi South 11.5 mph 16.1 mph N/A   Mostly Cloudy
5:55 AM 51.8 °F - 48.2 °F 88% 29.93 in 10.0 mi South 9.2 mph 20.7 mph N/A   Overcast
6:15 AM 51.8 °F - 48.2 °F 88% 29.93 in 10.0 mi South 11.5 mph 19.6 mph N/A   Overcast
6:35 AM 51.8 °F - 48.2 °F 88% 29.93 in 10.0 mi South 9.2 mph 19.6 mph N/A   Overcast
6:55 AM 51.8 °F - 48.2 °F 88% 29.93 in 10.0 mi South 11.5 mph 16.1 mph N/A   Overcast
7:15 AM 51.8 °F - 48.2 °F 88% 29.93 in 10.0 mi South 12.7 mph - N/A   Overcast
7:35 AM 51.8 °F - 48.2 °F 88% 29.93 in 10.0 mi South 13.8 mph 18.4 mph N/A   Overcast
7:55 AM 51.8 °F - 48.2 °F 88% 29.93 in 10.0 mi South 16.1 mph 19.6 mph N/A   Overcast
8:15 AM 51.8 °F - 48.2 °F 88% 29.94 in 10.0 mi South 13.8 mph 20.7 mph N/A   Overcast
8:35 AM 51.8 °F - 48.2 °F 88% 29.95 in 10.0 mi South 12.7 mph 19.6 mph N/A   Overcast
8:55 AM 51.8 °F - 48.2 °F 88% 29.95 in 10.0 mi South 13.8 mph 21.9 mph N/A   Overcast
9:15 AM 51.8 °F - 48.2 °F 88% 29.96 in 10.0 mi SSW 12.7 mph 20.7 mph N/A   Overcast
9:35 AM 51.8 °F - 48.2 °F 88% 29.96 in 10.0 mi SSW 12.7 mph - N/A   Overcast
9:55 AM 51.8 °F - 48.2 °F 88% 29.97 in 10.0 mi SSW 16.1 mph 19.6 mph N/A   Overcast
10:15 AM 51.8 °F - 48.2 °F 88% 29.97 in 10.0 mi SSW 13.8 mph 18.4 mph N/A   Overcast
10:35 AM 51.8 °F - 48.2 °F 88% 29.98 in 10.0 mi SSW 13.8 mph 17.3 mph N/A   Mostly Cloudy
10:55 AM 53.6 °F - 48.2 °F 82% 29.97 in 10.0 mi SSW 13.8 mph 18.4 mph N/A   Scattered Clouds
11:15 AM 55.4 °F - 50.0 °F 82% 29.97 in 10.0 mi SSW 15.0 mph 19.6 mph N/A   Scattered Clouds
11:35 AM 55.4 °F - 48.2 °F 77% 29.97 in 10.0 mi South 17.3 mph - N/A   Partly Cloudy
11:55 AM 57.2 °F - 48.2 °F 72% 29.98 in 10.0 mi South 15.0 mph 21.9 mph N/A   Mostly Cloudy
12:15 PM 57.2 °F - 46.4 °F 67% 29.99 in 10.0 mi SSW 18.4 mph 25.3 mph N/A   Mostly Cloudy
12:35 PM 57.2 °F - 46.4 °F 67% 29.99 in 10.0 mi SSW 15.0 mph 23.0 mph N/A   Partly Cloudy
12:55 PM 59.0 °F - 44.6 °F 59% 29.99 in 10.0 mi South 17.3 mph - N/A   Clear
1:15 PM 59.0 °F - 44.6 °F 59% 29.98 in 10.0 mi SW 18.4 mph 25.3 mph N/A   Clear
1:35 PM 59.0 °F - 44.6 °F 59% 29.99 in 10.0 mi SSW 19.6 mph 26.5 mph N/A   Clear
1:55 PM 60.8 °F - 44.6 °F 55% 29.99 in 10.0 mi SSW 21.9 mph 26.5 mph N/A   Partly Cloudy
2:15 PM 59.0 °F - 42.8 °F 55% 30.00 in 10.0 mi SSW 23.0 mph - N/A   Clear
2:35 PM 59.0 °F - 44.6 °F 59% 30.00 in 10.0 mi SSW 20.7 mph 29.9 mph N/A   Scattered Clouds
2:55 PM 55.4 °F - 42.8 °F 63% 29.99 in 10.0 mi SSW 20.7 mph 27.6 mph N/A   Scattered Clouds
3:15 PM 57.2 °F - 42.8 °F 59% 30.01 in 10.0 mi SSW 19.6 mph 29.9 mph N/A   Partly Cloudy
3:35 PM 57.2 °F - 42.8 °F 59% 30.01 in 10.0 mi South 21.9 mph 26.5 mph N/A   Clear
3:55 PM 57.2 °F - 42.8 °F 59% 30.01 in 10.0 mi SSW 21.9 mph 27.6 mph N/A   Clear
4:15 PM 55.4 °F - 42.8 °F 63% 30.02 in 10.0 mi SW 18.4 mph 27.6 mph N/A   Clear
4:35 PM 55.4 °F - 42.8 °F 63% 30.02 in 10.0 mi SSW 15.0 mph 25.3 mph N/A   Clear
4:55 PM 55.4 °F - 42.8 °F 63% 30.01 in 10.0 mi SSW 16.1 mph 23.0 mph N/A   Clear
5:15 PM 55.4 °F - 42.8 °F 63% 30.01 in 10.0 mi SSW 15.0 mph 24.2 mph N/A   Mostly Cloudy
5:35 PM 53.6 °F - 42.8 °F 67% 30.02 in 10.0 mi SSW 15.0 mph - N/A   Mostly Cloudy
5:55 PM 53.6 °F - 42.8 °F 67% 30.01 in 10.0 mi SSW 15.0 mph 26.5 mph N/A   Scattered Clouds
6:15 PM 53.6 °F - 42.8 °F 67% 30.00 in 10.0 mi SSW 13.8 mph 19.6 mph N/A   Overcast
6:35 PM 53.6 °F - 42.8 °F 67% 30.02 in 10.0 mi SSW 13.8 mph 20.7 mph N/A   Overcast
6:55 PM 51.8 °F - 44.6 °F 76% 30.02 in 10.0 mi South 17.3 mph - N/A   Scattered Clouds
7:15 PM 51.8 °F - 44.6 °F 76% 30.02 in 10.0 mi SSW 16.1 mph 20.7 mph N/A   Partly Cloudy
7:35 PM 51.8 °F - 44.6 °F 76% 30.02 in 10.0 mi South 9.2 mph - N/A   Scattered Clouds
7:55 PM 51.8 °F - 44.6 °F 76% 30.02 in 10.0 mi South 12.7 mph - N/A   Mostly Cloudy
8:15 PM 51.8 °F - 44.6 °F 76% 30.02 in 10.0 mi South 11.5 mph - N/A   Mostly Cloudy
8:35 PM 51.8 °F - 46.4 °F 82% 30.02 in 10.0 mi South 11.5 mph - N/A   Mostly Cloudy
8:55 PM 51.8 °F - 46.4 °F 82% 30.02 in 10.0 mi South 9.2 mph - N/A   Overcast
9:15 PM 48.2 °F - 44.6 °F 87% 30.02 in 10.0 mi South 8.1 mph - N/A   Overcast
9:35 PM 48.2 °F - 44.6 °F 87% 30.02 in 10.0 mi SSW 9.2 mph - N/A   Mostly Cloudy
9:55 PM 48.2 °F - 44.6 °F 87% 30.02 in 10.0 mi SW 6.9 mph - N/A   Overcast
10:15 PM 48.2 °F - 44.6 °F 87% 30.02 in 9.0 mi Calm Calm - N/A   Mostly Cloudy
10:35 PM 46.4 °F 44.3 °F 42.8 °F 87% 30.03 in 10.0 mi South 4.6 mph - N/A   Mostly Cloudy
10:55 PM 44.6 °F 43.1 °F 42.8 °F 93% 30.03 in 10.0 mi SSW 3.5 mph - N/A   Mostly Cloudy
11:15 PM 46.4 °F - 42.8 °F 87% 30.03 in 10.0 mi Calm Calm - N/A   Partly Cloudy
11:35 PM 44.6 °F - 41.0 °F 87% 30.04 in 10.0 mi Calm Calm - N/A   Clear
11:55 PM 42.8 °F - 39.2 °F 87% 30.03 in 8.0 mi Calm Calm - N/A   Clear